Hourly Data Report for July 02, 2018

TORONTO CITY
ONTARIO
Current Station Operator: ECCC - MSC

43°40'00.000" N
79°24'00.000" W
112.50 m
6158355
71508
XTO

Download Data

Hourly Data (July 2018)
Hourly Data Report for July 2, 2018
TIME
LST
Temp Definition
°C
Dew Point Definition
°C
Rel Hum Definition
%
Precip. Amount Definition
mm

Wind Dir Definition
10's deg

Wind Spd Definition
km/h
Visibility Definition
km
Stn Press Definition
kPa
Hmdx Definition


Wind Chill Definition


Weather Definition


00:00 25.9 18.1 62 0.0 LegendMM LegendMM   100.05 32   LegendNANA
01:00 25.6 18.2 64 0.0 LegendMM LegendMM   100.00 32   LegendNANA
02:00 25.0 18.7 68 0.0 LegendMM LegendMM   99.97 32   LegendNANA
03:00 24.6 18.9 71 0.0 LegendMM LegendMM   99.96 31   LegendNANA
04:00 24.5 19.1 72 0.0 LegendMM LegendMM   99.96 31   LegendNANA
05:00 24.5 19.5 74 0.0 LegendMM LegendMM   99.99 32   LegendNANA
06:00 24.5 20.0 76 0.0 LegendMM LegendMM   100.01 32   LegendNANA
07:00 25.6 20.1 72 0.0 LegendMM LegendMM   100.05 33   LegendNANA
08:00 27.1 20.1 66 0.0 LegendMM LegendMM   100.07 35   LegendNANA
09:00 28.5 20.1 61 0.0 LegendMM LegendMM   100.08 36   LegendNANA
10:00 29.6 21.0 60 0.0 LegendMM LegendMM   100.12 38   LegendNANA
11:00 30.5 20.8 56 0.0 LegendMM LegendMM   100.13 39   LegendNANA
12:00 31.0 21.1 55 0.0 LegendMM LegendMM   100.11 40   LegendNANA
13:00 30.5 21.4 58 0.0 LegendMM LegendMM   100.09 39   LegendNANA
14:00 31.3 21.5 56 0.0 LegendMM LegendMM   100.09 40   LegendNANA
15:00 27.9 18.3 56 0.0 LegendMM LegendMM   100.09 34   LegendNANA
16:00 28.7 18.9 55 0.0 LegendMM LegendMM   100.09 35   LegendNANA
17:00 27.8 21.8 70 0.0 LegendMM LegendMM   100.12 37   LegendNANA
18:00 28.9 21.7 65 0.0 LegendMM LegendMM   100.15 38   LegendNANA
19:00 29.5 19.1 53 0.0 LegendMM LegendMM   100.27 36   LegendNANA
20:00 27.9 17.9 55 0.0 LegendMM LegendMM   100.38 34   LegendNANA
21:00 26.2 16.7 56 0.0 LegendMM LegendMM   100.51 31   LegendNANA
22:00 24.9 15.5 56 0.0 LegendMM LegendMM   100.55 29   LegendNANA
23:00 23.7 14.6 57 0.0 LegendMM LegendMM   100.61 27   LegendNANA

Notes on Data Quality.

Legend

  • E = Estimated
  • M = Missing
  • NA = Not Available*
  • [empty] = Indicates an unobserved value
Date modified: